Content
SEND FEEDBACK

Daily
Averages
Monthly
Summary
Canada

SOREL, QUEBEC


Home > North America > Canada > Quebec
Elevation: 49 feet     Latitude: 46 28N     Longitude: 073 45W

WEATHER
 
SELECT A DAY
Number of Records: 198,773;   Date Range: 1/1/95 - 9/17/14
 
SHARE

PRINT THIS DATA

[ ← Previous Day ]
WEATHER ALMANAC - AUGUST 28, 2013
[ Next Day → ]
[ °C ]   °F
Weather ElementAverageHighLow
Temperature73.5 °F84.2 °F (2:00 pm)68 °F (2:00 am)
Dewpoint68.1 °F69.8 °F (8:30 am)60.8 °F (11:00 pm)
Humidity84.3 %100 % (2:00 am)53 % (2:00 pm)
Barometer29.90 in29.99 in (11:00 pm)29.86 in (4:00 am)
Wind Speed5.6 mph20.7 mph (4:37 pm)
Wind Gust28.8 mph (4:37 pm)
Weather ElementAverage
Visibility7.6 mi
Wind DirectionSSE (160.2 °)

Weather ElementTotal
Precipitation---
Cooling Degree Days11.1 (Base 65)
Growing Degree Days26.1 (Base 50)
Averaged from 46 records on August 28, 2013
WEATHER CONDITIONS BREAKOUT
WIND DIRECTION BREAKOUT
WEATHER BY HOUR - AUGUST 28, 2013
[ °C ]   °F
Local TimeTemperatureDewpointHumidityBarometerVisibilityWind DirectionWind SpeedGust SpeedPrecipitationEventsConditions
1:00 AM69.8 °F68.0 °F94 %29.88 in10.0 miSW (220°)4.6 mphClear
2:00 AM69.0 °F67.0 °F92 %29.88 in10.0 miWSW (240°)5.8 mphClear
2:00 AM68.0 °F68.0 °F100 %29.88 in10.0 miWSW (240°)5.8 mphPartly Cloudy
3:00 AM68.0 °F68.0 °F100 %29.88 in7.0 miWSW (240°)3.5 mphScattered Clouds
3:16 AM68.0 °F66.2 °F94 %29.87 in2.5 miCalmMostly Cloudy
3:27 AM68.0 °F68.0 °F100 %29.87 in4.0 miCalmMostly Cloudy
3:40 AM68.0 °F68.0 °F100 %29.87 in2.0 miCalmMostly Cloudy
4:00 AM68.0 °F68.0 °F100 %29.86 in3.0 miCalmMostly Cloudy
4:52 AM68.0 °F68.0 °F100 %29.87 in4.0 miSSW (210°)3.5 mphMostly Cloudy
5:00 AM68.0 °F66.2 °F94 %29.87 in4.0 miSSW (210°)3.5 mphMostly Cloudy
5:12 AM69.8 °F68.0 °F94 %29.87 in4.0 miSSW (200°)5.8 mphMostly Cloudy
6:00 AM68.0 °F68.0 °F100 %29.88 in4.0 miSW (220°)4.6 mphOvercast
6:38 AM69.8 °F68.0 °F94 %29.89 in1.5 miSW (230°)4.6 mphOvercast
6:45 AM69.8 °F68.0 °F94 %29.89 in0.8 miSW (230°)4.6 mphOvercast
7:00 AM68.0 °F68.0 °F100 %29.90 in0.5 miWest (270°)4.6 mphOvercast
7:07 AM68.0 °F68.0 °F100 %29.90 in0.4 miWSW (250°)2.3 mphFogFog
7:47 AM69.8 °F68.0 °F94 %29.91 in0.8 miWNW (300°)4.6 mphOvercast
8:00 AM69.8 °F68.0 °F94 %29.91 in0.6 miWNW (290°)3.5 mphOvercast
8:00 AM69.0 °F69.0 °F99 %29.91 in1.0 miWNW (290°)3.5 mphMist
8:30 AM69.8 °F69.8 °F100 %29.90 in1.0 miNW (310°)2.3 mphOvercast
8:40 AM69.8 °F69.8 °F100 %29.90 in1.8 miVariable2.3 mphOvercast
9:00 AM71.6 °F69.8 °F94 %29.90 in2.5 miCalmOvercast
9:32 AM69.8 °F69.8 °F100 %29.91 in1.5 miSW (220°)2.3 mphOvercast
10:00 AM71.6 °F69.8 °F94 %29.91 in2.2 miVariable2.3 mphOvercast
10:21 AM71.6 °F69.8 °F94 %29.91 in4.0 miSE (140°)3.5 mphOvercast
10:43 AM73.4 °F69.8 °F88 %29.92 in5.0 miSouth (170°)4.6 mphMostly Cloudy
10:53 AM75.2 °F69.8 °F83 %29.92 in7.0 miSSE (150°)3.5 mphMostly Cloudy
11:00 AM75.2 °F69.8 °F83 %29.92 in8.0 miSSE (150°)3.5 mphMostly Cloudy
12:00 PM78.8 °F69.8 °F74 %29.91 in10.0 miCalmMostly Cloudy
1:00 PM80.6 °F69.8 °F70 %29.90 in12.0 miSouth (180°)4.6 mphOvercast
2:00 PM83.0 °F68.0 °F53 %29.89 in12.0 miSSW (210°)4.6 mphOvercast
2:00 PM84.2 °F68.0 °F58 %29.89 in12.0 miSSW (200°)5.8 mphOvercast
3:00 PM84.2 °F66.2 °F55 %29.88 in15.0 miVariable2.3 mphOvercast
4:00 PM84.2 °F68.0 °F58 %29.88 in15.0 miSouth (170°)6.9 mphRainLight Rain Showers
4:28 PM82.4 °F69.8 °F66 %29.88 in12.0 miWest (270°)8.1 mphRainRain Showers
4:32 PM80.6 °F69.8 °F70 %29.88 in12.0 miSW (220°)11.5 mphRain-ThunderstormHeavy Thunderstorms and Rain
4:37 PM78.8 °F66.2 °F65 %29.88 in15.0 miSouth (170°)20.7 mph28.8 mphRain-ThunderstormLight Thunderstorms and Rain
5:00 PM80.6 °F68.0 °F65 %29.88 in15.0 miWest (280°)8.1 mphRain-ThunderstormLight Thunderstorms and Rain
5:06 PM80.6 °F69.8 °F70 %29.88 in15.0 miWNW (300°)6.9 mphRainLight Rain Showers
5:28 PM80.6 °F68.0 °F65 %29.89 in15.0 miNorth (360°)15.0 mphOvercast
6:00 PM80.6 °F68.0 °F65 %29.89 in15.0 miNNE (30°)11.5 mphOvercast
7:00 PM78.8 °F68.0 °F69 %29.91 in15.0 miNNE (30°)10.4 mphOvercast
8:00 PM77.0 °F66.2 °F69 %29.93 in15.0 miNE (50°)10.4 mphMostly Cloudy
9:00 PM75.2 °F68.0 °F78 %29.95 in12.0 miNE (50°)10.4 mph17.3 mphMostly Cloudy
10:00 PM71.6 °F62.6 °F73 %29.98 in15.0 miNE (40°)17.3 mphScattered Clouds
11:00 PM68.0 °F60.8 °F78 %29.99 in15.0 miNNE (30°)13.8 mph19.6 mphScattered Clouds
Hourly data recorded from CYUL, located miles away from Sorel, Quebec







STORIES FROM OUR PARTNERS